Lindberg Landing, Northwest Territories

7:08 AM MDT on July 21, 2017 (GMT -0600)
Lindberg Landing

Weather History for CXLL - November, 2012

Change the Weather History Date:

Tuesday, November 13, 2012

  Actual Average Record
Temperature  
Mean Temperature -14 °F -  
Max Temperature -6 °F - - ()
Min Temperature -22 °F - - ()
Degree Days  
Heating Degree Days 79    
Moisture  
Dew Point -21 °F    
Average Humidity 80    
Maximum Humidity 86    
Minimum Humidity 63    
Precipitation  
Precipitation 0.00 in - - ()
Sea Level Pressure  
Sea Level Pressure 30.10 in    
Wind  
Wind Speed 0 mph ()    
Max Wind Speed 2 mph    
Max Gust Speed -    
T = Trace of Precipitation, MM = Missing Value Source: Averaged Metar Reports

Daily Weather History Graph

Daily Weather History Graph

Search for Another Location

Airport or City:

Trip Planner

Search our weather history database for the weather conditions in past years. The results will help you decide how hot, cold, wet, or windy it might be!

Date:

Astronomy

Nov. 13, 2012 Rise Set
Actual Time 9:13 AM MST 4:37 PM MST
Civil Twilight 8:21 AM MST 5:28 PM MST
Nautical Twilight 7:28 AM MST 6:22 PM MST
Astronomical Twilight 6:37 AM MST 7:12 PM MST
Moon 9:04 AM MST (11/13) 4:24 PM MST (11/13)
Length of Visible Light 9h 06m
Length of Day
7h 24m
Waning Crescent, 0% of the Moon is Illuminated
Nov 13
Waning Crescent
Nov 13
New
Nov 20
First Quarter
Nov 28
Full
Dec 6
Last Quarter

Hourly Weather History & Observations

Time (MST) Temp. Dew Point Humidity Pressure Visibility Wind Dir Wind Speed Gust Speed Precip Events Conditions
12:00 AM -11.9 °F -15.0 °F 86% 30.30 in - ESE 1.2 mph - N/A   Unknown
1:00 AM -13.7 °F -17.1 °F 85% 30.29 in - Calm Calm - N/A   Unknown
2:00 AM -15.3 °F -18.8 °F 85% 30.27 in - Calm Calm - N/A   Unknown
3:00 AM -17.0 °F -20.7 °F 83% 30.25 in - Calm Calm - N/A   Unknown
4:00 AM -18.2 °F -22.4 °F 81% 30.22 in - Calm Calm - N/A   Unknown
5:00 AM -19 °F -23 °F 71% 30.20 in - Calm Calm - -  
5:00 AM -19.1 °F -23.1 °F 82% 30.20 in - Calm Calm - N/A   Unknown
6:00 AM -19.8 °F -23.8 °F 82% 30.18 in - Calm Calm - N/A   Unknown
7:00 AM -20.4 °F -24.5 °F 81% 30.16 in - Calm Calm - N/A   Unknown
8:00 AM -21.8 °F -26.1 °F 80% 30.14 in - Calm Calm - N/A   Unknown
9:00 AM -22.7 °F -27.2 °F 80% 30.12 in - ENE 1.2 mph - N/A   Unknown
10:00 AM -22.0 °F -26.7 °F 79% 30.10 in - NE 1.2 mph - N/A   Unknown
11:00 AM -14 °F -20 °F 63% 30.07 in - Calm Calm - -  
11:00 AM -14.4 °F -19.7 °F 77% 30.07 in - Calm Calm - N/A   Unknown
12:00 PM -14.4 °F -18.9 °F 80% 30.05 in - North 1.2 mph - N/A   Unknown
1:00 PM -12.3 °F -15.3 °F 86% 30.01 in - North 2.3 mph - N/A   Unknown
2:00 PM -8.3 °F -12.6 °F 81% 29.99 in - Calm Calm - N/A   Unknown
3:00 PM -6.2 °F -10.3 °F 82% 29.98 in - NNE 1.2 mph - N/A   Unknown
4:00 PM -10.5 °F -13.9 °F 85% 29.99 in - Calm Calm - N/A   Unknown
5:00 PM -14 °F -18 °F 72% 30.00 in - Calm Calm - -  
5:00 PM -14.3 °F -18.0 °F 83% 30.00 in - Calm Calm - N/A   Unknown
6:00 PM -16.8 °F -20.7 °F 82% 30.01 in - Calm Calm - N/A   Unknown
7:00 PM -18.0 °F -21.8 °F 83% 30.01 in - Calm Calm - N/A   Unknown
8:00 PM -19.1 °F -23.4 °F 81% 30.04 in - East 1.2 mph - N/A   Unknown
9:00 PM -20.6 °F -24.7 °F 81% 30.06 in - Calm Calm - N/A   Unknown
10:00 PM -21.1 °F -24.9 °F 83% 30.07 in - Calm Calm - N/A   Unknown
11:00 PM -21 °F -26 °F 66% 30.08 in - Calm Calm - -  
11:00 PM -21.5 °F -25.8 °F 80% 30.08 in - Calm Calm - N/A   Unknown